Retour au catalogue

THORAD AGENA D DEB

ActifSSO
NORAD 4946·DEBRIS·🇺🇸 United States

Lancé Apr 8, 1970 depuis Vandenberg Space Force Base

Loading…

Prochains Passages

TLE

Source: Space-Track
1  4946U 70025GG  26221.83098134  .00000523  00000-0  51327-3 0  9997
2  4946  99.6737 348.6215 0017313 182.0448 340.2877 13.83920359810426

Suivez THORAD AGENA D DEB en temps réel avec AllMySat

Download on the App Store